Temp
42 41 42 41 40 40 39 40 40 40 40 40 39 42 42 41 41 40 41 41 43 44 44 44 44 44 45 45 45 44 45 46 45 45 46 44 43 43 43 43 43 42 43 43 44 44 44 44 45 45 47 48 49 49 49 50 49 49 49 49 49 49
40 40 40 42 42 42 42 40 40 42 42 40 41 41 40 40 40 39 41 41 41 43 42 41 43 44 44 45 44 45 45 46 45 45 43 45 44 44 43 42 42 42 42 42 42 43 43 43 43 43 45 46 47 48 48 48 48 48 48 49 48 48
40 40 38 38 37 37 38 39 40 40 40 41 40 41 42 42 40 39 41 40 41 40 41 42 41 42 42 42 43 44 45 45 44 45 45 40 42 41 42 42 42 42 42 42 41 42 43 43 43 43 44 45 46 46 47 46 45 46 46 44 44 44
43 44 41 38 38 42 41 41 40 42 42 41 40 40 41 41 42 40 41 39 40 40 41 41 38 41 39 41 41 42 43 42 42 41 38 41 43 41 43 43 43 42 41 41 42 41 41 42 43 42 43 44 44 44 45 44 43 42 43 42 43 42
38 37 38 38 38 39 37 38 40 41 41 40 40 39 42 41 41 41 39 39 38 39 38 37 37 37 37 38 39 40 41 41 38 37 40 41 39 36 39 40 39 39 39 40 40 41 41 41 41 41 42 42 42 42 42 43 42 42 42 42 42 42
35 40 43 44 42 41 40 39 39 40 40 39 38 39 40 40 40 39 38 38 38 37 35 36 36 35 35 37 39 38 38 38 37 36 38 39 37 37 36 36 38 38 38 39 40 40 40 41 40 40 40 42 42 41 42 41 41 41 42 42 42 42
38 40 40 40 39 38 38 39 39 38 38 37 37 38 38 38 37 37 38 36 37 38 36 37 35 35 35 36 37 37 37 36 36 35 37 37 37 37 36 36 36 38 38 40 40 41 40 41 41 40 40 40 40 41 41 41 41 41 41 41 41 40
41 39 39 39 38 38 38 38 37 37 36 37 36 37 38 39 36 36 36 36 36 38 37 37 35 35 36 36 36 37 37 36 35 36 36 36 38 37 36 37 36 37 39 40 40 41 41 40 40 40 40 40 39 39 39 39 40 40 40 40 40 40
39 39 39 39 39 38 38 38 37 37 37 39 38 37 36 37 36 37 37 36 35 37 37 37 37 37 36 36 37 36 36 36 35 35 37 35 36 37 37 36 37 36 37 39 40 40 40 40 40 39 39 39 39 39 38 38 38 39 39 40 40 40
39 39 38 38 38 39 39 39 38 38 37 38 38 37 36 37 37 38 37 37 37 37 38 38 36 36 37 36 36 36 36 36 35 36 35 34 36 36 37 37 38 37 36 37 38 39 38 39 39 39 39 38 38 38 37 37 38 38 38 38 39 39
37 38 38 38 38 39 39 39 40 39 39 38 38 37 37 35 36 37 37 36 36 37 37 37 37 36 36 36 36 36 36 36 35 35 35 34 35 36 36 36 37 37 37 37 37 37 37 37 38 38 38 37 37 37 37 37 37 37 38 38 38 38
36 36 37 37 37 37 38 38 38 38 37 38 38 37 37 35 35 36 37 37 37 37 36 36 35 36 35 36 36 37 36 36 35 34 34 35 35 35 35 35 35 36 37 37 37 37 37 38 38 37 39 39 38 37 37 37 36 36 37 37 37 37
36 36 37 37 36 36 37 37 36 36 37 37 37 37 36 34 35 36 36 37 37 36 35 35 36 35 36 36 35 35 36 36 35 34 34 34 34 35 35 34 35 36 36 37 37 38 37 38 38 38 40 41 41 38 36 36 36 36 36 37 37 37
35 35 35 35 36 36 36 36 36 36 37 37 37 36 35 34 35 35 36 35 36 36 36 35 35 35 35 35 36 35 35 34 34 34 34 34 34 34 33 33 35 36 36 37 36 37 37 38 38 40 41 41 42 40 37 36 36 37 37 37 37 37
33 33 34 34 35 35 35 34 34 36 36 36 36 34 35 35 35 35 35 36 35 35 34 35 35 35 35 35 35 34 34 34 34 34 34 35 35 32 33 35 35 35 35 36 36 36 37 37 39 40 41 41 41 42 40 37 37 36 36 37 37 36
34 34 33 33 34 33 34 33 33 35 34 34 34 33 35 35 35 34 35 35 35 35 34 34 35 35 35 35 35 34 34 34 34 34 33 34 33 33 33 33 34 34 34 35 35 36 37 37 37 40 40 40 41 41 41 38 37 36 37 37 37 37
33 34 35 35 34 33 32 33 33 33 33 33 33 34 34 34 34 34 35 35 35 34 35 35 35 34 35 34 34 34 34 34 34 34 34 34 34 34 34 35 34 34 34 34 34 34 35 36 38 39 40 40 41 41 40 37 36 36 35 36 36 36
34 33 34 34 33 33 32 34 34 33 34 33 33 33 34 34 34 35 35 35 35 35 34 34 34 34 34 34 34 34 34 34 34 35 35 34 33 33 32 33 33 34 34 34 33 34 34 35 38 38 39 40 41 41 38 36 36 35 35 35 35 35
32 34 33 33 33 33 34 34 33 33 33 34 34 33 34 34 35 35 35 35 35 34 34 33 33 33 33 33 33 33 34 34 35 34 33 33 34 33 33 34 34 34 33 33 33 33 34 34 36 38 39 39 40 39 36 35 35 35 34 35 35 35
32 32 32 33 33 33 33 32 32 32 32 33 33 33 33 34 34 34 34 34 34 33 33 32 32 32 32 33 33 33 34 34 33 33 33 33 34 34 34 34 33 33 32 32 32 33 33 34 34 36 38 39 40 38 35 35 35 34 34 34 34 34
31 31 31 32 34 34 32 31 31 32 32 32 33 32 32 34 34 34 33 33 33 33 32 32 32 32 32 32 32 33 33 33 34 33 32 32 32 32 32 31 31 32 31 30 31 32 32 32 33 36 37 38 39 38 34 34 34 34 34 33 33 33
32 34 34 34 34 34 33 32 32 32 32 32 32 32 33 33 33 33 33 33 33 32 32 32 31 31 31 31 32 32 32 32 31 32 32 32 30 31 31 29 30 30 31 30 29 30 30 31 31 32 36 38 38 39 35 34 34 34 34 33 32 31
31 31 32 32 33 33 33 32 32 32 32 32 32 32 33 33 33 33 33 32 32 32 32 31 30 30 31 30 30 31 30 30 30 31 30 30 30 29 29 28 28 28 29 29 28 28 28 29 29 30 35 37 38 38 37 34 34 35 34 33 32 31
31 31 32 33 33 33 32 31 30 31 31 31 31 32 32 32 32 32 31 31 31 31 30 31 31 30 30 30 29 29 30 30 29 28 28 28 27 28 28 28 27 27 28 28 26 26 27 28 30 29 32 35 37 38 38 35 34 35 34 33 32 31
30 31 31 32 32 31 31 27 27 29 29 29 31 32 31 31 31 30 30 29 29 29 29 30 30 30 30 29 28 27 27 29 28 28 26 25 26 27 27 27 27 26 27 27 26 25 25 26 28 31 31 33 36 37 38 38 36 37 35 33 31 31
29 29 29 29 29 27 27 25 26 27 27 29 31 31 31 30 30 29 28 28 28 28 29 29 29 28 27 26 26 26 26 28 28 27 26 25 25 26 27 28 26 25 26 27 27 26 24 25 26 29 31 32 34 36 37 38 38 38 34 33 32 31
27 27 27 28 27 27 25 23 24 25 25 28 29 29 29 28 28 27 27 27 27 27 28 29 28 28 27 26 24 25 27 27 27 27 28 22 24 25 25 27 26 26 26 26 27 27 25 25 25 25 29 32 33 35 36 37 38 38 37 33 31 32
21 22 24 25 25 26 24 23 22 25 27 28 28 28 28 27 26 26 26 26 27 27 27 27 28 28 27 27 24 24 25 25 26 26 27 26 25 25 25 26 26 26 26 26 26 26 26 25 25 26 28 31 32 33 34 36 37 36 36 33 32 33
23 22 22 23 24 25 26 24 25 25 26 26 27 27 26 25 24 25 25 25 26 26 26 26 27 27 28 27 25 24 24 24 24 25 25 26 26 26 26 26 26 26 26 26 26 26 26 25 26 28 30 31 32 32 33 34 35 34 34 32 31 32
21 21 21 22 24 24 24 23 23 24 24 25 26 25 25 24 24 24 24 24 25 25 25 26 26 26 26 27 26 25 26 25 24 24 25 27 27 26 27 27 27 27 27 26 27 27 27 27 27 28 29 30 32 32 33 33 33 32 31 30 30 31
19 19 19 19 21 21 20 20 21 22 23 24 24 24 23 23 24 23 23 23 24 24 25 25 25 26 26 26 26 26 25 25 26 26 27 28 27 27 28 28 28 29 27 27 27 28 29 30 30 30 33 32 33 32 32 32 31 31 31 31 32 30
17 16 16 17 18 17 17 17 19 21 22 23 24 23 22 22 22 22 22 23 23 23 24 25 25 25 25 25 25 25 26 28 30 29 27 27 29 31 33 33 29 29 28 28 29 30 30 31 32 35 35 34 34 34 34 34 34 33 31 32 33 32
14 14 13 14 15 14 15 16 18 21 23 24 24 23 22 22 21 21 22 22 22 23 23 23 24 24 25 25 25 25 25 26 28 32 33 33 31 32 33 34 34 35 34 32 30 32 35 34 35 35 35 34 34 34 34 34 34 34 33 33 31 29
11 11 10 11 12 13 15 17 19 22 23 23 22 22 22 21 21 20 20 21 21 22 22 23 23 24 25 25 26 26 26 26 26 28 32 33 33 33 33 34 34 34 34 35 34 32 31 33 34 34 34 34 34 34 34 34 34 33 33 34 33 28
9 9 9 10 11 13 16 18 20 22 20 20 21 22 21 21 20 20 20 20 20 21 22 22 23 24 25 25 26 26 27 26 26 26 27 30 34 34 34 34 34 34 34 34 35 35 34 33 33 33 34 34 34 34 34 34 34 34 34 33 30 28
7 7 8 9 12 15 17 18 17 16 17 20 21 21 20 20 20 19 19 19 19 20 21 22 23 24 25 26 26 27 27 27 27 27 27 27 28 30 32 34 34 33 33 34 34 34 34 34 34 33 33 33 33 34 34 33 32 34 34 32 29 28
5 6 9 12 15 16 14 12 13 16 18 20 20 20 19 19 18 18 18 19 19 19 20 21 23 24 25 26 26 27 27 27 28 28 27 27 26 27 27 29 30 32 33 32 32 33 34 33 33 33 33 33 34 34 34 34 31 29 30 30 29 28
6 7 11 13 11 8 8 9 13 16 17 18 19 18 17 16 16 16 16 16 17 18 19 20 21 22 23 24 25 26 27 28 28 28 28 28 28 28 27 28 30 30 31 33 32 33 33 33 33 33 33 33 34 34 34 29 28 28 28 28 28 27
MSLP
1016.28 1016.44 1016.38 1016.58 1016.68 1016.82 1017.12 1017.54 1017.58 1017.40 1017.52 1017.70 1017.52 1016.66 1017.12 1017.66 1017.96 1017.98 1017.94 1017.96 1017.80 1017.76 1017.62 1017.56 1017.52 1017.54 1017.48 1017.42 1017.42 1017.44 1017.44 1017.36 1017.42 1017.46 1017.38 1017.50 1017.66 1017.72 1017.78 1017.90 1017.96 1018.06 1018.16 1018.22 1018.24 1018.32 1018.38 1018.48 1018.56 1018.70 1018.74 1018.78 1018.68 1018.68 1018.70 1018.78 1018.96 1018.98 1018.90 1018.86 1019.02 1018.88
1016.50 1016.80 1016.98 1017.00 1017.10 1016.94 1016.94 1017.02 1016.96 1016.30 1016.66 1016.82 1016.96 1017.34 1017.74 1017.70 1017.70 1017.74 1017.56 1017.64 1017.76 1017.58 1017.64 1017.52 1017.44 1017.28 1017.22 1017.20 1017.24 1017.26 1017.16 1017.04 1017.08 1017.10 1017.24 1017.24 1017.36 1017.44 1017.56 1017.64 1017.70 1017.80 1017.88 1017.94 1018.00 1018.06 1018.16 1018.26 1018.34 1018.46 1018.50 1018.56 1018.44 1018.40 1018.48 1018.50 1018.66 1018.66 1018.54 1018.48 1018.72 1018.74
1016.84 1017.22 1017.62 1017.64 1017.66 1017.70 1017.62 1017.74 1017.36 1017.32 1017.54 1017.10 1017.66 1017.18 1016.96 1017.08 1017.56 1017.68 1017.48 1017.58 1017.52 1017.60 1017.42 1017.36 1017.34 1017.20 1017.26 1017.22 1017.16 1017.10 1017.00 1017.02 1017.02 1016.90 1016.76 1016.94 1017.00 1017.14 1017.22 1017.24 1017.30 1017.44 1017.52 1017.60 1017.72 1017.82 1017.88 1017.98 1018.04 1018.14 1018.24 1018.26 1018.16 1018.16 1018.16 1018.22 1018.36 1018.36 1018.26 1018.32 1018.34 1018.42
1016.62 1016.82 1017.38 1017.68 1017.60 1017.46 1017.28 1017.38 1017.32 1016.98 1017.00 1017.80 1017.94 1017.78 1017.48 1017.48 1017.38 1017.66 1017.64 1017.66 1017.60 1017.42 1017.30 1017.18 1017.24 1017.24 1017.28 1017.22 1017.20 1017.20 1017.10 1017.06 1017.12 1017.20 1017.30 1017.12 1016.94 1017.16 1017.00 1016.88 1016.78 1016.74 1016.88 1017.18 1017.36 1017.52 1017.64 1017.70 1017.72 1017.86 1017.98 1017.94 1017.90 1017.88 1017.96 1018.00 1018.10 1018.16 1018.12 1018.22 1018.14 1018.20
1017.00 1017.36 1017.58 1017.70 1017.96 1018.12 1018.20 1018.00 1017.84 1017.82 1017.68 1017.70 1017.82 1017.88 1017.22 1017.84 1017.72 1017.68 1017.76 1017.68 1017.56 1017.36 1017.30 1017.24 1017.16 1017.20 1017.16 1017.12 1017.08 1017.08 1017.02 1017.02 1017.06 1017.08 1017.06 1017.02 1017.06 1017.26 1017.28 1017.24 1017.24 1017.20 1017.12 1016.90 1016.86 1017.08 1017.30 1017.42 1017.50 1017.58 1017.66 1017.62 1017.62 1017.60 1017.68 1017.70 1017.76 1017.72 1017.72 1017.80 1017.78 1017.84
1017.30 1017.44 1017.54 1017.68 1017.94 1018.20 1018.42 1018.54 1018.54 1018.38 1018.20 1018.18 1018.12 1017.82 1017.80 1017.58 1017.66 1017.90 1017.90 1017.72 1017.42 1017.36 1017.36 1017.34 1017.40 1017.34 1017.22 1017.08 1016.98 1016.94 1016.86 1016.92 1016.90 1016.92 1016.96 1016.90 1016.94 1016.90 1016.96 1017.06 1017.02 1017.08 1017.08 1017.06 1017.02 1016.96 1016.86 1016.98 1017.14 1017.30 1017.34 1017.24 1017.26 1017.30 1017.32 1017.40 1017.46 1017.46 1017.40 1017.34 1017.34 1017.44
1017.82 1018.24 1018.54 1018.72 1018.90 1019.08 1019.08 1018.98 1018.88 1018.84 1018.66 1018.74 1018.74 1018.74 1018.62 1018.36 1018.26 1018.16 1017.90 1017.76 1017.32 1017.16 1017.28 1017.16 1017.26 1017.20 1017.08 1016.96 1016.94 1016.80 1016.76 1016.78 1016.76 1016.80 1016.74 1016.72 1016.66 1016.64 1016.60 1016.58 1016.74 1016.76 1016.80 1016.76 1016.74 1016.72 1016.70 1016.66 1016.74 1016.80 1016.84 1016.90 1016.96 1016.98 1016.98 1017.00 1017.04 1017.04 1017.04 1017.00 1016.98 1017.04
1019.00 1019.24 1019.46 1019.54 1019.62 1019.70 1019.62 1019.54 1019.46 1019.40 1019.36 1019.24 1019.28 1018.96 1018.56 1018.36 1018.44 1018.24 1017.92 1017.72 1017.46 1017.18 1017.10 1017.06 1017.02 1016.94 1016.86 1016.82 1016.78 1016.70 1016.68 1016.72 1016.68 1016.60 1016.58 1016.56 1016.36 1016.36 1016.34 1016.26 1016.40 1016.44 1016.32 1016.28 1016.18 1016.10 1016.10 1016.26 1016.40 1016.40 1016.32 1016.36 1016.56 1016.72 1016.74 1016.74 1016.74 1016.68 1016.68 1016.68 1016.70 1016.74
1019.68 1020.00 1020.14 1020.20 1020.24 1020.30 1020.20 1020.12 1019.92 1019.72 1019.58 1019.32 1019.16 1019.14 1018.96 1018.72 1018.58 1018.22 1017.96 1017.76 1017.62 1017.32 1017.00 1016.96 1016.90 1016.94 1016.82 1016.76 1016.66 1016.66 1016.62 1016.50 1016.46 1016.44 1016.30 1016.28 1016.22 1016.12 1016.02 1016.08 1016.06 1016.10 1016.16 1016.00 1016.00 1015.90 1015.86 1015.84 1015.92 1016.00 1016.04 1016.10 1016.22 1016.32 1016.42 1016.48 1016.50 1016.44 1016.40 1016.40 1016.38 1016.36
1019.32 1019.70 1020.06 1020.14 1020.08 1019.92 1019.66 1019.60 1019.62 1019.60 1019.58 1019.40 1019.30 1019.26 1019.10 1018.98 1018.80 1018.36 1018.00 1017.82 1017.46 1017.24 1016.96 1016.96 1017.02 1016.96 1016.82 1016.72 1016.66 1016.56 1016.46 1016.40 1016.30 1016.20 1016.14 1016.18 1016.10 1016.02 1015.98 1015.88 1015.84 1015.82 1015.98 1015.76 1015.68 1015.58 1015.66 1015.68 1015.74 1015.74 1015.76 1015.84 1015.92 1016.02 1016.08 1016.14 1016.14 1016.12 1016.06 1016.04 1016.06 1016.06
1019.58 1019.66 1019.72 1019.88 1019.80 1019.54 1019.60 1019.48 1019.38 1019.40 1019.38 1019.38 1019.34 1019.24 1019.18 1019.30 1019.06 1018.60 1018.26 1017.98 1017.70 1017.48 1017.50 1017.36 1017.18 1017.10 1016.90 1016.74 1016.60 1016.42 1016.30 1016.24 1016.18 1016.12 1016.06 1016.04 1015.96 1015.92 1015.82 1015.78 1015.78 1015.70 1015.56 1015.52 1015.54 1015.44 1015.46 1015.46 1015.34 1015.34 1015.40 1015.48 1015.54 1015.64 1015.66 1015.72 1015.74 1015.72 1015.66 1015.66 1015.68 1015.74
1020.04 1020.16 1020.16 1019.98 1020.04 1020.04 1019.96 1019.88 1019.82 1019.86 1019.76 1019.46 1019.44 1019.36 1019.30 1019.30 1019.00 1018.74 1018.40 1018.06 1017.88 1017.86 1017.74 1017.62 1017.42 1017.20 1017.06 1016.82 1016.58 1016.40 1016.30 1016.18 1016.10 1016.04 1015.98 1015.92 1015.92 1015.84 1015.76 1015.72 1015.68 1015.60 1015.40 1015.28 1015.18 1015.20 1015.24 1015.14 1015.04 1014.96 1014.90 1014.90 1014.98 1015.18 1015.30 1015.38 1015.38 1015.38 1015.36 1015.38 1015.40 1015.40
1020.22 1020.18 1020.14 1020.24 1020.32 1020.44 1020.42 1020.36 1020.30 1020.12 1019.78 1019.60 1019.56 1019.46 1019.52 1019.50 1019.10 1018.80 1018.62 1018.18 1018.10 1017.98 1017.78 1017.54 1017.34 1017.26 1016.98 1016.84 1016.74 1016.54 1016.32 1016.14 1016.06 1016.00 1015.88 1015.80 1015.72 1015.62 1015.58 1015.60 1015.50 1015.36 1015.28 1015.18 1015.02 1014.94 1014.94 1014.90 1014.82 1014.74 1014.68 1014.64 1014.72 1014.90 1014.98 1015.00 1015.00 1015.06 1015.06 1015.14 1015.12 1015.04
1020.40 1020.44 1020.50 1020.58 1020.58 1020.50 1020.48 1020.34 1020.24 1020.08 1019.68 1019.70 1019.60 1019.58 1019.58 1019.34 1019.12 1018.92 1018.64 1018.48 1018.30 1018.06 1017.80 1017.64 1017.54 1017.28 1016.96 1016.82 1016.54 1016.40 1016.26 1016.14 1016.04 1015.90 1015.78 1015.68 1015.50 1015.38 1015.48 1015.44 1015.24 1015.14 1015.08 1014.98 1014.90 1014.80 1014.62 1014.52 1014.48 1014.50 1014.42 1014.44 1014.48 1014.56 1014.66 1014.72 1014.72 1014.68 1014.70 1014.74 1014.78 1014.76
1020.92 1020.94 1020.86 1020.84 1020.74 1020.64 1020.66 1020.74 1020.38 1020.00 1020.04 1019.88 1019.68 1019.72 1019.46 1019.22 1019.04 1018.82 1018.56 1018.38 1018.26 1018.06 1017.96 1017.82 1017.62 1017.38 1017.06 1016.78 1016.60 1016.42 1016.24 1015.98 1015.78 1015.60 1015.46 1015.26 1015.24 1015.32 1015.22 1015.02 1015.04 1014.92 1014.90 1014.90 1014.70 1014.46 1014.28 1014.18 1014.10 1014.12 1014.06 1014.10 1014.10 1014.14 1014.26 1014.36 1014.36 1014.36 1014.32 1014.40 1014.44 1014.48
1020.94 1021.06 1021.12 1021.06 1021.02 1021.10 1021.00 1020.92 1020.60 1020.40 1020.42 1020.24 1019.98 1019.68 1019.42 1019.20 1018.84 1018.74 1018.46 1018.32 1018.14 1018.04 1017.94 1017.80 1017.58 1017.30 1017.04 1016.80 1016.56 1016.36 1016.12 1015.90 1015.58 1015.40 1015.28 1015.12 1015.06 1015.04 1014.88 1014.82 1014.74 1014.62 1014.62 1014.54 1014.42 1014.14 1013.98 1013.92 1013.90 1013.92 1013.84 1013.80 1013.76 1013.80 1013.88 1013.92 1013.98 1013.90 1013.84 1013.96 1014.08 1014.16
1020.88 1020.84 1020.78 1020.78 1021.04 1021.10 1021.10 1020.82 1020.74 1020.70 1020.44 1020.26 1019.96 1019.72 1019.52 1019.32 1019.06 1018.70 1018.54 1018.38 1018.24 1018.12 1017.92 1017.76 1017.60 1017.36 1017.06 1016.82 1016.62 1016.36 1016.10 1015.86 1015.56 1015.34 1015.14 1015.00 1014.84 1014.68 1014.42 1014.30 1014.24 1014.12 1014.16 1014.12 1014.08 1013.96 1013.68 1013.60 1013.68 1013.68 1013.62 1013.54 1013.52 1013.48 1013.56 1013.56 1013.66 1013.66 1013.62 1013.64 1013.74 1013.80
1020.70 1020.88 1020.78 1021.06 1021.10 1020.84 1020.80 1020.54 1020.58 1020.44 1020.16 1020.16 1019.88 1019.66 1019.52 1019.32 1019.04 1018.72 1018.60 1018.44 1018.32 1018.24 1018.12 1017.96 1017.68 1017.44 1017.16 1016.88 1016.62 1016.42 1016.08 1015.82 1015.66 1015.32 1015.04 1014.92 1014.70 1014.62 1014.52 1014.32 1014.26 1013.98 1013.80 1013.70 1013.74 1013.70 1013.36 1013.18 1013.30 1013.26 1013.22 1013.22 1013.20 1013.22 1013.30 1013.34 1013.38 1013.36 1013.36 1013.38 1013.46 1013.52
1020.94 1020.84 1020.96 1020.84 1020.86 1020.66 1020.48 1020.54 1020.58 1020.42 1020.14 1019.78 1019.66 1019.70 1019.52 1019.24 1018.86 1018.72 1018.72 1018.62 1018.44 1018.30 1018.18 1018.04 1017.80 1017.48 1017.20 1016.96 1016.68 1016.32 1016.06 1015.80 1015.44 1015.32 1015.20 1014.90 1014.58 1014.42 1014.22 1014.02 1013.82 1013.70 1013.64 1013.48 1013.48 1013.42 1013.08 1012.88 1012.98 1012.98 1012.90 1012.88 1012.86 1013.00 1013.06 1013.10 1013.12 1013.10 1013.10 1013.06 1013.12 1013.20
1021.14 1021.04 1020.98 1020.64 1020.46 1020.50 1020.64 1020.70 1020.56 1020.42 1020.14 1019.86 1019.82 1019.68 1019.44 1019.20 1018.98 1019.04 1019.04 1018.88 1018.70 1018.52 1018.30 1018.14 1017.94 1017.58 1017.18 1016.90 1016.64 1016.28 1015.96 1015.78 1015.60 1015.42 1015.28 1015.10 1014.64 1014.28 1014.04 1013.88 1013.64 1013.54 1013.52 1013.38 1013.22 1013.16 1012.98 1012.62 1012.74 1012.78 1012.68 1012.66 1012.62 1012.68 1012.76 1012.82 1012.88 1012.82 1012.82 1012.84 1012.90 1013.00
1020.96 1020.92 1020.98 1020.88 1020.46 1020.54 1020.88 1020.88 1020.72 1020.48 1020.16 1020.08 1019.96 1019.92 1019.56 1019.22 1019.16 1019.16 1019.12 1018.90 1018.76 1018.58 1018.38 1018.14 1017.86 1017.64 1017.32 1016.94 1016.60 1016.42 1016.10 1015.78 1015.58 1015.36 1015.30 1015.16 1014.96 1014.54 1014.24 1014.10 1013.84 1013.44 1013.30 1013.22 1013.02 1012.92 1012.90 1012.58 1012.52 1012.54 1012.42 1012.38 1012.36 1012.42 1012.54 1012.64 1012.66 1012.58 1012.52 1012.60 1012.64 1012.74
1020.62 1020.28 1020.18 1020.22 1020.22 1020.64 1020.68 1020.68 1020.62 1020.44 1020.30 1020.14 1020.12 1019.74 1019.44 1019.44 1019.56 1019.48 1019.30 1019.08 1018.80 1018.58 1018.32 1018.10 1017.82 1017.52 1017.34 1016.98 1016.52 1016.30 1016.12 1015.90 1015.62 1015.30 1015.16 1014.90 1014.86 1014.56 1014.26 1014.22 1014.00 1013.56 1013.08 1013.04 1012.94 1012.82 1012.70 1012.58 1012.34 1012.32 1012.14 1012.02 1012.00 1012.04 1012.22 1012.38 1012.46 1012.30 1012.22 1012.30 1012.36 1012.50
1020.86 1020.82 1020.78 1020.80 1020.82 1020.82 1020.80 1020.72 1020.58 1020.32 1020.34 1020.36 1020.14 1019.76 1019.70 1019.76 1019.68 1019.50 1019.26 1019.04 1018.74 1018.42 1018.14 1017.94 1017.82 1017.48 1017.10 1017.08 1016.82 1016.36 1016.06 1015.88 1015.56 1015.18 1015.06 1014.84 1014.60 1014.50 1014.26 1014.10 1013.94 1013.66 1013.16 1012.98 1012.88 1012.72 1012.58 1012.50 1012.26 1012.06 1011.96 1011.80 1011.74 1011.72 1011.80 1011.94 1011.94 1011.90 1011.96 1011.98 1012.12 1012.16
1021.14 1021.16 1021.14 1021.14 1021.14 1021.16 1021.10 1021.06 1020.92 1020.86 1020.76 1020.64 1020.34 1020.10 1020.10 1020.02 1019.86 1019.64 1019.38 1019.08 1018.78 1018.46 1018.12 1017.80 1017.52 1017.44 1017.22 1016.90 1016.78 1016.42 1015.84 1015.54 1015.50 1015.26 1015.02 1014.88 1014.66 1014.34 1014.00 1013.82 1013.80 1013.60 1013.14 1012.86 1012.82 1012.68 1012.46 1012.34 1012.20 1011.96 1011.84 1011.72 1011.58 1011.48 1011.40 1011.48 1011.44 1011.50 1011.68 1011.80 1011.88 1012.00
1021.66 1021.58 1021.50 1021.40 1021.40 1021.42 1021.40 1021.36 1021.24 1021.04 1021.00 1020.84 1020.44 1020.30 1020.30 1020.18 1019.98 1019.76 1019.48 1019.22 1018.86 1018.48 1018.14 1017.80 1017.50 1017.22 1017.06 1016.86 1016.70 1016.54 1016.02 1015.48 1015.30 1014.98 1014.92 1014.78 1014.42 1014.20 1013.92 1013.58 1013.56 1013.48 1013.02 1012.66 1012.54 1012.56 1012.40 1012.22 1012.06 1011.90 1011.80 1011.66 1011.48 1011.30 1011.18 1011.04 1011.10 1011.18 1011.36 1011.56 1011.62 1011.70
1022.16 1022.06 1021.94 1021.90 1021.86 1021.84 1021.72 1021.58 1021.52 1021.42 1021.32 1020.98 1020.58 1020.50 1020.32 1020.16 1019.98 1019.74 1019.50 1019.14 1018.80 1018.40 1018.02 1017.68 1017.36 1017.14 1017.02 1016.88 1016.66 1016.40 1016.04 1015.48 1015.08 1014.88 1014.70 1014.62 1014.44 1014.18 1013.80 1013.36 1013.34 1013.32 1012.98 1012.54 1012.08 1012.10 1012.20 1012.14 1012.00 1011.78 1011.66 1011.54 1011.38 1011.18 1011.04 1010.94 1010.88 1011.00 1011.10 1011.32 1011.44 1011.60
1022.54 1022.34 1022.20 1022.10 1021.96 1021.94 1021.82 1021.76 1021.72 1021.62 1021.54 1021.10 1020.92 1020.76 1020.48 1020.22 1019.98 1019.74 1019.40 1019.02 1018.64 1018.30 1017.88 1017.50 1017.16 1016.94 1016.72 1016.56 1016.54 1016.24 1015.72 1015.26 1015.02 1014.70 1014.22 1014.34 1014.30 1014.14 1013.88 1013.26 1013.12 1013.04 1012.70 1012.44 1012.10 1011.82 1011.84 1011.84 1011.80 1011.70 1011.54 1011.38 1011.24 1011.10 1010.90 1010.76 1010.74 1010.72 1010.82 1011.12 1011.30 1011.50
1022.92 1022.70 1022.44 1022.26 1022.12 1021.92 1021.96 1021.94 1021.86 1021.66 1021.32 1021.16 1021.06 1020.80 1020.56 1020.30 1020.00 1019.64 1019.26 1018.96 1018.54 1018.14 1017.90 1017.52 1016.90 1016.58 1016.42 1016.24 1016.16 1016.06 1015.84 1015.58 1015.20 1014.86 1014.30 1014.16 1014.08 1013.96 1013.76 1013.24 1012.94 1012.72 1012.52 1012.30 1011.92 1011.72 1011.50 1011.46 1011.50 1011.44 1011.38 1011.26 1011.06 1010.88 1010.70 1010.54 1010.40 1010.42 1010.56 1010.78 1011.14 1011.28
1022.86 1022.74 1022.74 1022.54 1022.36 1022.24 1022.18 1022.08 1021.94 1021.86 1021.60 1021.44 1021.20 1020.96 1020.68 1020.40 1020.16 1019.74 1019.30 1018.96 1018.58 1018.10 1017.82 1017.58 1017.00 1016.50 1016.04 1015.86 1015.80 1015.66 1015.50 1015.36 1015.16 1014.84 1014.38 1014.00 1013.80 1013.58 1013.30 1013.02 1012.80 1012.46 1012.24 1012.00 1011.62 1011.38 1011.26 1011.16 1011.12 1011.10 1011.08 1011.00 1010.82 1010.60 1010.44 1010.34 1010.18 1010.22 1010.50 1010.84 1011.04 1011.14
1023.18 1023.08 1023.00 1022.94 1022.68 1022.64 1022.60 1022.50 1022.34 1022.10 1021.84 1021.54 1021.28 1020.98 1020.70 1020.46 1020.12 1019.78 1019.34 1019.04 1018.80 1018.36 1017.94 1017.52 1016.94 1016.64 1016.20 1015.64 1015.52 1015.36 1014.96 1014.74 1014.72 1014.54 1014.00 1013.50 1013.34 1013.18 1012.72 1012.46 1012.28 1012.06 1011.90 1011.68 1011.28 1011.12 1010.96 1010.68 1010.66 1010.74 1010.72 1010.54 1010.48 1010.46 1010.32 1010.20 1010.18 1010.24 1010.42 1010.70 1010.86 1010.96
1023.60 1023.62 1023.60 1023.48 1023.26 1023.18 1023.10 1022.94 1022.72 1022.40 1022.08 1021.72 1021.36 1021.02 1020.76 1020.44 1020.02 1019.70 1019.32 1018.96 1018.58 1018.14 1017.76 1017.44 1017.00 1016.62 1016.26 1015.72 1015.18 1014.96 1014.88 1014.60 1014.20 1013.92 1013.34 1012.84 1012.92 1012.88 1012.52 1012.12 1011.70 1011.40 1011.48 1011.46 1011.18 1011.00 1010.60 1010.04 1010.00 1010.02 1010.08 1010.14 1010.14 1010.16 1010.18 1010.16 1010.16 1010.24 1010.36 1010.42 1010.64 1010.98
1024.36 1024.22 1024.16 1024.02 1023.88 1023.82 1023.68 1023.32 1022.94 1022.54 1022.12 1021.68 1021.32 1021.12 1020.96 1020.60 1020.16 1019.68 1019.28 1018.94 1018.56 1018.10 1017.64 1017.20 1016.78 1016.42 1016.12 1015.72 1015.28 1014.74 1013.90 1013.62 1013.80 1013.52 1013.26 1012.44 1012.20 1012.22 1011.88 1011.72 1011.36 1010.98 1011.08 1011.08 1010.70 1010.64 1010.46 1009.82 1009.46 1009.66 1009.74 1009.76 1009.84 1009.88 1009.88 1009.88 1009.96 1010.00 1010.28 1010.46 1010.50 1010.68
1024.92 1024.84 1024.72 1024.58 1024.36 1024.32 1024.00 1023.54 1023.02 1022.44 1021.94 1021.52 1021.40 1021.34 1021.22 1020.92 1020.46 1019.84 1019.34 1019.00 1018.64 1018.24 1017.84 1017.30 1016.72 1016.18 1015.88 1015.52 1015.22 1014.86 1014.40 1013.38 1012.38 1012.46 1012.44 1012.00 1011.56 1011.46 1011.30 1011.02 1010.74 1010.52 1010.38 1010.40 1010.08 1009.80 1009.80 1009.60 1009.42 1009.46 1009.46 1009.50 1009.56 1009.62 1009.66 1009.72 1009.78 1009.92 1010.18 1010.32 1010.56 1010.76
1025.50 1025.38 1025.18 1024.94 1024.76 1024.42 1023.96 1023.36 1022.76 1022.16 1021.74 1021.62 1021.58 1021.46 1021.24 1021.00 1020.68 1020.16 1019.56 1019.22 1018.84 1018.30 1017.82 1017.36 1016.86 1016.26 1015.74 1015.18 1014.80 1014.56 1014.22 1013.76 1013.02 1011.50 1010.96 1011.40 1011.14 1010.74 1010.64 1010.40 1010.16 1009.98 1009.80 1009.64 1009.50 1009.34 1009.22 1009.24 1009.26 1009.20 1009.14 1009.12 1009.14 1009.24 1009.34 1009.48 1009.56 1009.74 1009.92 1010.12 1010.34 1010.68
1025.90 1025.72 1025.46 1025.08 1024.72 1024.16 1023.60 1023.02 1022.42 1022.16 1022.24 1022.06 1021.76 1021.44 1021.12 1020.86 1020.64 1020.30 1019.80 1019.36 1018.94 1018.44 1017.90 1017.40 1016.84 1016.22 1015.70 1015.14 1014.56 1014.04 1013.78 1013.56 1013.08 1012.56 1011.20 1009.96 1010.26 1010.40 1010.02 1009.80 1009.64 1009.50 1009.34 1009.20 1009.02 1008.94 1008.78 1008.72 1008.78 1008.80 1008.72 1008.76 1008.74 1008.74 1008.88 1009.02 1009.20 1009.36 1009.46 1009.70 1009.92 1010.10
1026.08 1025.86 1025.48 1024.92 1024.32 1023.74 1023.12 1022.82 1022.88 1022.84 1022.50 1022.00 1021.60 1021.32 1021.06 1020.76 1020.56 1020.36 1020.02 1019.56 1019.08 1018.54 1017.86 1017.28 1016.74 1016.14 1015.50 1014.98 1014.48 1013.96 1013.52 1013.08 1012.82 1012.42 1011.96 1011.24 1010.08 1009.38 1009.24 1009.18 1009.18 1009.16 1009.08 1008.88 1008.72 1008.58 1008.48 1008.42 1008.36 1008.42 1008.42 1008.40 1008.38 1008.32 1008.44 1008.70 1008.86 1008.94 1009.06 1009.28 1009.48 1009.70
1026.08 1025.66 1025.16 1024.42 1023.80 1023.48 1023.66 1023.86 1023.58 1022.98 1022.34 1021.80 1021.46 1021.10 1020.86 1020.70 1020.54 1020.24 1019.84 1019.58 1019.24 1018.68 1017.92 1017.22 1016.64 1016.06 1015.36 1014.68 1014.12 1013.62 1013.14 1012.64 1012.22 1011.98 1011.66 1011.24 1010.76 1010.16 1009.44 1008.82 1008.66 1008.66 1008.68 1008.52 1008.40 1008.30 1008.18 1008.10 1008.04 1008.04 1008.04 1008.04 1008.02 1007.98 1008.04 1008.36 1008.72 1008.82 1008.84 1008.92 1009.12 1009.40
1025.80 1025.26 1024.52 1024.10 1024.30 1024.44 1024.24 1024.00 1023.44 1022.78 1022.34 1021.98 1021.46 1021.14 1021.04 1020.84 1020.56 1020.18 1019.72 1019.22 1018.88 1018.44 1017.78 1017.12 1016.54 1015.98 1015.36 1014.70 1013.94 1013.30 1012.78 1012.26 1011.82 1011.46 1011.08 1010.70 1010.40 1009.96 1009.44 1008.82 1008.42 1008.30 1008.16 1008.08 1007.96 1007.92 1007.90 1007.78 1007.70 1007.62 1007.58 1007.66 1007.70 1007.68 1007.74 1008.00 1008.10 1008.32 1008.34 1008.48 1008.66 1008.96
Wind_Speed
5 5 5 5 5 5 4 5 5 4 2 2 3 6 5 4 4 4 4 4 5 5 6 5 6 6 6 6 6 5 6 8 6 7 8 5 5 6 6 6 6 6 6 6 6 6 7 6 7 6 7 7 8 8 8 7 7 8 9 7 8 9
5 5 5 7 8 9 9 8 7 7 6 6 6 5 3 4 4 4 5 5 4 6 5 5 5 6 6 6 6 7 8 8 7 7 6 8 6 6 5 6 7 6 7 7 7 7 6 6 6 6 7 7 8 8 8 7 7 9 10 9 8 8
5 5 4 5 6 5 5 5 7 7 6 7 6 7 9 8 4 4 5 4 5 5 7 7 5 6 5 5 6 7 7 6 6 7 7 5 7 6 8 8 8 7 7 7 7 7 7 7 7 6 7 7 8 8 8 7 7 9 9 7 9 8
6 7 6 4 6 8 10 9 8 9 8 6 6 7 5 6 7 4 5 4 5 6 7 7 5 5 4 5 5 6 7 6 5 5 4 6 6 4 7 8 7 8 8 7 7 7 7 7 7 6 6 8 8 9 7 7 7 8 8 6 9 8
5 4 5 5 5 5 5 6 7 8 8 9 7 7 9 6 7 6 5 6 5 6 6 5 5 4 5 5 6 6 7 6 5 4 6 6 5 4 5 5 5 5 5 7 7 7 7 7 7 6 7 8 9 9 8 8 8 9 9 9 9 9
5 8 9 10 9 9 9 7 6 7 7 8 8 10 11 11 9 8 7 6 7 6 5 5 4 4 5 5 6 6 6 6 5 4 5 6 5 6 5 5 6 5 6 7 7 7 7 8 7 7 8 10 9 9 9 9 8 9 9 9 9 8
5 5 5 5 6 6 7 7 7 7 8 7 7 7 6 7 7 6 6 5 8 7 6 6 5 5 5 6 6 7 6 5 5 4 6 5 6 6 6 6 5 6 6 8 8 8 8 8 8 9 9 9 8 9 9 9 9 9 9 9 9 9
0 2 3 3 4 4 5 5 5 5 5 5 4 6 8 8 6 5 6 5 6 7 7 6 5 5 6 6 6 7 6 6 5 5 5 5 7 6 6 7 6 7 9 9 9 9 9 8 8 9 10 9 8 8 8 8 8 8 8 8 8 8
3 2 2 2 1 1 1 1 2 4 4 6 6 5 6 7 8 7 6 6 5 7 7 6 6 5 6 6 6 6 6 6 6 5 7 6 7 7 7 6 7 7 8 9 8 9 9 9 8 9 9 8 8 8 8 8 8 8 8 8 8 8
8 7 5 5 5 5 6 5 5 5 6 7 7 6 6 8 8 8 7 7 7 6 8 7 6 6 6 6 5 6 6 6 6 6 6 5 6 7 7 7 8 7 6 9 9 8 7 7 7 8 8 7 8 8 8 8 8 8 8 7 8 7
8 9 9 8 9 11 10 10 10 9 8 6 6 7 7 6 6 7 7 6 6 7 7 7 7 6 7 7 6 6 6 6 6 6 5 5 6 6 7 6 6 7 8 8 8 8 7 8 9 8 8 8 9 8 9 9 9 9 8 8 8 7
6 7 7 9 10 10 10 10 10 9 9 9 8 8 8 8 7 7 7 7 7 7 7 6 6 7 7 7 7 7 7 7 6 6 6 6 6 6 6 6 6 7 8 9 9 8 8 8 7 9 14 13 9 8 8 8 8 8 8 8 8 7
6 7 8 8 9 8 7 7 7 7 7 7 8 8 7 6 7 6 6 7 7 6 6 6 7 7 8 7 7 7 7 7 6 6 6 6 6 7 6 6 7 8 8 9 9 9 8 8 8 12 14 15 15 9 7 8 8 7 7 7 8 8
6 7 7 7 7 7 8 9 9 8 10 9 8 9 7 6 6 6 7 6 6 6 7 6 7 7 7 6 7 6 6 6 6 6 7 6 7 6 4 6 8 8 7 8 8 9 9 9 9 13 15 15 15 13 9 7 8 7 7 8 8 8
4 4 5 5 5 7 7 6 7 9 9 10 9 8 7 7 6 7 7 7 6 7 6 6 7 7 7 7 7 6 6 6 6 6 6 8 6 5 6 8 7 8 7 7 9 10 9 9 10 13 15 14 15 15 13 8 8 7 7 8 8 8
3 3 3 4 4 4 5 5 5 7 6 7 7 7 7 8 9 7 8 8 8 7 7 7 8 8 8 8 8 7 7 7 7 7 6 6 5 6 7 7 8 7 7 8 9 10 9 9 9 13 14 14 15 15 13 9 8 8 8 8 8 7
4 5 5 5 5 4 4 4 3 5 5 5 6 5 7 6 7 7 7 8 8 8 8 9 9 9 10 9 8 8 8 8 8 8 7 6 6 7 8 7 7 8 7 8 8 9 10 8 9 12 14 14 15 15 13 8 7 6 6 7 7 7
5 5 6 4 4 5 4 6 6 6 7 4 4 6 6 6 6 7 7 9 8 8 8 8 10 9 9 9 9 8 9 8 8 9 8 7 7 6 6 7 6 9 9 8 7 8 11 8 10 12 13 14 14 15 9 7 7 7 7 6 7 7
4 5 5 5 4 4 6 6 6 7 8 9 8 7 7 7 9 10 10 10 10 10 9 8 9 10 9 9 9 10 9 9 10 8 5 8 8 7 7 8 8 7 7 8 7 8 10 9 8 12 13 14 15 11 7 7 7 7 7 8 6 7
3 4 4 6 6 5 5 5 6 7 7 8 8 9 9 7 8 8 9 10 10 10 9 8 8 10 10 10 10 11 10 8 7 7 6 7 9 10 8 7 8 7 6 8 9 8 10 9 7 10 13 14 14 11 8 7 7 7 7 6 6 5
3 4 3 4 6 6 5 5 5 6 7 7 8 7 7 9 10 10 12 12 11 10 9 8 8 8 9 10 10 9 11 10 9 9 7 7 7 10 8 7 8 9 7 7 9 9 10 10 8 10 13 14 14 11 7 7 6 8 7 6 7 6
5 7 8 9 10 8 8 6 6 6 6 8 7 8 8 9 10 10 9 10 10 9 9 8 9 9 8 10 11 9 8 8 9 8 8 8 6 9 8 7 8 10 9 6 7 7 8 9 8 7 12 13 14 15 8 6 7 9 8 7 7 6
4 5 7 7 8 8 8 8 9 10 9 9 10 10 9 9 10 11 11 10 11 11 11 9 7 10 11 7 9 10 9 7 8 9 7 9 8 7 8 8 8 9 10 7 7 7 7 7 8 8 11 13 13 14 13 7 9 8 7 7 7 7
5 5 6 6 7 7 7 6 8 7 8 8 10 9 8 9 10 10 11 11 12 12 11 11 11 7 8 9 8 10 11 7 6 7 7 7 7 9 10 8 7 8 10 8 6 6 8 7 10 8 9 12 14 14 16 10 9 9 8 8 7 6
5 6 7 7 7 7 6 5 6 7 7 9 10 9 8 9 9 9 10 10 11 11 11 11 11 11 8 9 9 9 12 10 8 8 6 6 8 8 10 10 8 8 10 10 7 6 6 6 7 10 8 10 13 15 16 16 11 13 9 8 8 7
4 5 5 5 5 4 5 4 5 6 7 10 10 9 9 9 9 9 10 10 10 11 10 10 10 9 7 8 8 9 10 11 9 8 7 6 7 8 9 9 7 7 9 10 10 6 5 6 6 7 10 9 12 15 16 17 17 14 8 6 6 4
5 6 5 5 5 5 4 3 4 6 7 8 6 9 10 10 10 10 11 12 11 11 11 11 11 10 8 7 6 8 10 10 8 10 9 5 6 7 8 10 7 8 9 9 10 9 6 6 6 6 8 12 12 14 15 16 16 18 15 8 5 5
4 4 6 6 5 6 4 4 5 8 9 7 8 9 9 10 11 12 12 11 11 11 10 12 13 10 8 8 7 7 7 8 9 9 10 8 7 7 8 10 8 8 8 9 9 9 8 6 6 6 6 6 9 10 13 15 14 14 14 11 6 9
7 6 6 8 6 6 7 6 6 6 7 8 8 9 9 10 10 11 11 11 12 12 11 11 11 11 11 8 7 7 7 7 7 8 9 8 8 8 8 9 9 9 8 9 9 9 8 7 6 6 5 6 7 7 7 9 9 11 11 8 6 8
7 9 9 9 9 7 7 7 8 8 9 8 9 9 9 9 9 11 11 12 10 10 9 10 13 12 11 11 9 9 10 7 6 8 10 9 8 8 10 9 9 9 8 9 9 8 8 8 6 5 6 7 6 6 6 6 5 6 7 7 6 6
9 8 9 10 8 9 9 9 9 9 9 9 9 9 9 10 11 12 12 11 9 10 9 9 9 9 10 11 11 9 8 9 10 9 11 10 7 8 10 10 11 10 7 8 8 8 9 9 8 7 6 7 8 8 6 6 6 6 6 8 10 6
7 9 10 9 8 9 10 10 10 9 9 9 8 7 9 12 12 12 11 10 10 10 10 10 10 9 9 10 10 12 13 10 12 12 10 12 10 13 17 15 12 10 7 8 9 7 9 11 8 5 8 12 12 13 13 11 9 10 8 10 15 9
7 8 9 9 8 9 9 10 10 10 9 7 7 9 10 11 11 11 10 10 10 11 12 11 11 11 10 9 10 9 11 14 14 12 18 20 18 16 19 19 20 20 17 12 11 10 14 16 17 14 10 11 13 14 15 15 13 15 14 16 11 9
8 8 10 9 8 9 10 10 10 9 8 9 10 11 10 10 10 11 12 11 11 13 12 11 11 12 11 11 10 9 9 10 12 17 10 11 16 18 17 19 18 18 18 18 16 13 9 11 13 13 12 13 14 15 16 17 17 17 17 18 16 8
8 8 9 9 9 10 10 9 8 8 10 10 10 10 11 11 10 11 12 12 12 12 13 12 11 11 11 12 12 11 10 9 10 12 16 16 9 13 17 17 17 17 18 18 18 18 16 13 11 13 14 14 15 16 18 19 20 19 20 20 13 9
9 9 10 10 10 10 9 9 10 11 12 10 10 10 11 11 10 11 10 11 12 12 11 9 10 11 11 11 11 11 11 11 10 11 12 13 15 13 10 13 16 16 16 17 18 17 16 16 16 15 15 16 17 18 19 19 15 19 21 18 10 9
10 9 9 12 10 9 10 10 11 11 11 11 12 11 10 10 10 10 11 17 14 10 11 10 10 10 11 11 11 11 11 11 10 10 11 11 12 12 14 12 8 10 15 13 12 15 18 17 17 16 16 17 18 19 20 19 11 12 11 13 9 8
10 10 9 9 10 11 12 11 10 10 11 13 13 11 10 11 11 11 11 11 11 10 9 10 10 10 11 11 12 12 11 11 11 11 11 11 11 12 12 12 10 8 8 15 16 16 16 17 18 18 18 17 19 20 21 12 10 9 9 9 9 9
Wind_Direction
357 352 342 330 333 326 319 325 329 328 319 284 256 287 291 294 298 286 279 256 263 261 258 250 246 238 240 240 239 237 233 236 227 224 230 236 228 223 220 221 223 222 225 223 231 226 226 224 225 220 227 225 237 236 242 236 229 236 245 246 244 249
348 351 351 343 337 332 334 334 333 338 338 336 332 311 312 319 316 298 286 270 259 269 269 261 244 238 234 234 233 235 234 234 226 226 229 229 222 224 219 220 222 219 222 223 225 228 228 225 225 216 222 224 233 234 235 230 225 236 241 247 239 244
329 346 357 344 331 324 325 342 334 319 332 342 345 330 323 322 313 295 281 289 278 270 268 264 252 253 248 250 239 241 244 246 238 233 229 213 223 207 215 218 218 218 220 222 223 224 223 224 226 217 219 224 234 233 233 232 225 235 243 242 244 236
350 354 7 3 3 1 355 346 347 348 346 339 330 326 317 320 326 322 297 284 270 267 268 267 263 257 259 255 259 255 259 256 249 259 273 244 250 223 233 232 225 213 207 213 224 226 226 228 226 217 216 227 234 237 228 231 226 236 245 238 245 241
345 340 347 357 359 345 345 345 352 340 335 341 342 338 322 330 315 322 320 307 292 272 263 266 265 262 260 260 260 259 259 262 261 251 245 251 259 256 253 260 255 244 233 226 220 219 226 225 227 219 217 228 230 233 234 230 226 230 236 237 240 239
348 1 360 355 359 358 353 346 342 341 341 344 342 337 328 331 330 325 320 311 299 290 294 291 295 287 273 266 263 263 262 261 258 246 246 254 262 254 245 243 245 242 235 239 239 233 226 222 220 221 222 228 225 229 231 228 228 231 234 234 238 236
351 349 344 346 346 351 350 352 348 343 339 340 331 315 308 310 315 317 311 310 311 315 318 309 305 292 281 272 274 270 270 263 260 251 245 249 254 245 244 244 223 232 231 233 235 235 231 228 219 222 227 228 225 228 230 229 228 228 231 232 234 233
295 357 353 352 352 353 343 345 338 331 328 324 315 325 332 327 324 315 314 318 317 313 316 308 307 294 280 277 277 273 274 273 261 256 250 237 252 249 242 242 232 223 234 231 232 229 229 224 220 225 229 227 223 226 230 231 232 234 234 234 232 231
62 50 22 350 324 313 297 298 327 337 342 343 349 347 334 327 330 325 327 326 322 314 313 312 305 296 289 283 278 279 279 272 266 257 256 242 244 250 253 246 244 235 232 239 237 237 233 229 223 226 229 230 224 224 227 231 234 235 235 235 234 231
11 15 7 7 6 358 10 14 15 9 2 345 342 345 341 341 340 335 337 337 330 323 318 319 316 313 301 294 290 284 280 279 273 263 261 256 253 252 252 252 248 248 233 241 239 240 235 234 231 230 231 228 225 223 229 228 233 236 239 240 238 234
357 356 360 360 3 7 2 359 356 356 354 351 347 345 350 343 338 337 338 336 332 324 319 319 322 318 315 312 309 303 295 286 278 276 269 259 259 255 253 254 252 255 250 247 243 245 233 230 229 226 223 225 225 221 225 226 229 232 239 242 242 238
2 357 354 3 2 359 359 355 352 351 344 340 343 342 343 348 345 345 343 341 333 326 325 323 319 321 318 318 315 309 305 298 292 286 279 271 264 265 260 259 254 249 253 255 249 242 237 236 235 229 225 220 220 218 224 227 231 231 236 241 246 245
1 359 2 358 356 351 349 343 336 335 334 340 340 340 340 344 338 342 341 336 332 330 329 336 332 327 323 316 311 309 307 303 299 293 284 277 269 264 262 255 257 251 250 251 253 250 243 242 239 235 233 232 226 221 224 225 231 227 231 236 241 246
359 357 348 341 342 345 350 344 338 339 342 337 338 336 333 340 342 340 336 329 330 334 337 333 327 323 316 316 308 305 298 295 295 289 283 280 277 267 260 258 253 257 255 253 254 252 249 247 239 238 239 236 233 226 225 228 231 229 230 231 237 241
330 327 329 332 336 341 335 330 330 336 334 330 326 328 337 342 341 338 337 337 336 333 330 326 325 317 313 313 309 304 302 294 288 281 279 275 269 278 265 257 259 257 255 253 258 257 250 251 242 240 239 236 233 230 226 230 226 228 232 231 234 235
325 324 309 299 308 308 303 305 296 306 312 307 316 330 338 339 340 343 336 336 338 335 332 330 329 326 321 317 316 315 311 308 296 287 276 278 281 268 270 266 261 261 254 249 251 257 258 252 247 243 242 239 234 232 230 231 227 229 226 229 229 232
329 331 339 344 332 314 308 306 299 303 309 319 324 330 334 338 330 335 337 335 332 334 335 335 334 328 324 321 318 318 312 309 305 301 292 284 278 276 269 270 269 260 253 253 249 257 260 254 247 245 243 241 236 234 233 234 233 233 232 227 226 227
330 322 313 314 326 321 327 331 333 337 330 323 328 334 337 333 333 332 338 336 334 335 333 332 328 325 323 321 320 316 310 308 300 300 301 292 282 270 268 271 257 265 263 254 251 256 261 256 240 242 241 239 238 236 234 234 231 233 232 229 224 225
307 312 310 318 324 328 339 337 338 337 333 341 344 345 341 343 345 344 339 334 332 332 332 331 324 321 320 319 318 314 310 311 308 302 296 295 286 283 277 269 264 261 263 265 253 253 263 263 242 241 242 239 238 235 233 229 231 233 233 232 224 224
300 306 316 320 329 332 338 338 339 339 338 338 340 344 340 344 340 336 332 327 327 324 324 322 320 318 319 320 319 315 311 307 294 292 295 289 296 290 279 276 279 267 255 260 260 246 261 267 244 239 244 242 238 228 229 224 229 235 231 237 223 218
314 295 311 313 325 336 345 337 338 341 335 335 336 337 335 338 336 338 333 325 321 319 317 316 315 314 313 313 310 311 308 310 307 302 302 287 283 280 287 286 280 280 263 252 257 257 253 264 257 244 246 241 239 232 223 221 225 235 233 225 228 213
342 346 350 350 336 333 342 345 346 342 339 335 334 336 337 335 332 322 317 315 314 312 313 313 314 310 309 309 307 305 298 300 304 302 301 294 281 286 289 285 280 278 275 260 259 257 248 258 259 238 241 238 236 231 220 216 222 233 234 223 221 215
354 332 324 321 324 333 338 347 348 340 337 335 335 329 328 326 324 323 319 318 315 316 315 314 310 310 308 300 298 300 298 295 294 298 298 295 295 287 286 282 280 279 279 272 261 262 256 246 256 249 235 239 232 228 222 218 222 229 227 225 218 218
334 327 320 317 325 331 335 342 338 324 324 325 315 308 316 320 319 317 317 317 316 314 314 314 312 304 299 305 308 306 302 295 282 284 290 291 290 293 290 287 285 284 283 282 266 261 260 250 246 253 247 241 238 231 226 223 225 215 221 225 226 215
326 316 310 315 323 329 324 332 322 312 315 309 300 310 315 314 313 312 311 309 308 308 308 308 309 309 313 309 307 302 297 302 303 296 292 291 294 289 290 290 290 288 287 288 273 260 261 258 255 251 251 246 243 238 232 230 228 224 219 218 225 215
297 294 294 297 299 307 307 312 305 304 305 298 303 313 314 314 314 312 310 308 306 308 307 307 305 302 299 297 299 298 294 299 302 297 292 290 287 291 292 289 286 284 285 287 289 275 260 263 257 256 252 250 247 246 242 238 235 228 217 217 226 204
302 299 301 303 307 308 311 311 306 298 294 292 310 311 314 315 316 316 312 313 312 311 312 311 308 307 303 297 292 299 301 300 303 303 300 285 280 279 278 282 284 276 279 285 281 286 273 255 258 256 252 250 250 250 248 246 240 237 221 214 215 189
285 297 312 318 320 320 330 327 320 312 306 314 317 314 314 316 317 315 312 312 310 310 313 311 307 306 300 300 291 275 274 282 294 295 293 294 278 274 273 278 283 276 273 275 278 278 273 264 252 254 251 250 249 248 247 245 238 224 207 198 192 197
339 339 336 326 328 333 329 331 323 306 307 316 314 314 313 313 312 307 309 312 313 312 315 312 309 312 310 304 296 280 273 268 273 275 279 279 280 278 273 273 275 279 275 274 276 275 274 267 252 247 245 243 243 242 240 236 231 208 196 186 189 190
342 335 334 329 329 334 330 327 324 321 319 315 318 315 314 312 310 309 307 308 306 303 307 306 304 307 305 306 307 304 301 280 248 263 269 274 272 275 280 276 271 269 271 277 275 279 278 270 253 235 232 242 237 241 233 221 203 188 185 186 186 182
332 328 326 320 328 332 329 324 321 321 320 317 314 315 319 317 314 310 308 308 308 304 305 298 299 300 302 301 302 288 263 274 288 273 271 259 231 239 258 271 270 265 257 260 269 277 281 276 265 249 228 236 232 226 219 210 206 191 191 187 175 160
327 321 320 318 326 328 324 320 319 318 316 313 316 325 328 322 317 313 311 313 310 309 310 308 303 301 298 298 300 305 303 270 244 257 268 278 263 241 248 252 259 262 258 259 258 241 258 272 280 291 243 234 230 229 225 222 208 201 185 179 178 167
323 318 315 318 323 320 317 314 313 311 310 315 330 334 324 319 314 308 308 312 311 310 309 306 306 304 301 295 295 297 296 306 304 264 247 263 267 262 262 258 259 264 262 254 267 259 250 261 272 269 249 232 225 227 224 218 205 200 185 180 176 185
323 320 315 316 314 310 309 306 306 304 318 335 332 324 316 315 313 310 310 312 309 309 307 305 302 303 302 300 298 291 294 299 301 307 282 240 259 270 262 265 262 257 257 255 251 259 266 256 255 249 237 222 219 223 223 214 203 195 185 189 185 194
317 313 309 309 305 304 301 298 304 330 333 320 314 312 311 311 311 307 307 307 307 305 304 302 301 299 298 297 300 299 296 290 293 297 304 307 267 251 270 270 260 257 257 255 255 251 252 254 243 234 233 226 223 218 212 208 201 194 190 189 195 198
314 312 308 303 302 299 306 321 331 323 310 304 305 307 303 304 305 304 302 306 306 303 298 296 296 295 293 290 286 286 285 283 278 280 286 291 304 302 263 250 253 253 254 258 256 251 241 242 244 239 233 227 223 213 208 203 202 200 197 193 202 196
309 307 303 300 307 322 329 322 314 308 305 309 311 306 306 308 307 304 299 300 301 295 293 292 290 288 289 288 287 285 282 279 276 273 273 276 283 284 290 298 279 254 243 247 252 249 249 245 238 233 233 228 223 217 207 204 200 201 205 203 201 193
306 302 308 328 333 321 311 309 304 306 318 316 312 317 318 314 309 305 301 299 295 287 283 286 287 287 285 286 284 282 278 277 278 273 271 271 268 271 277 282 276 268 254 241 242 242 243 243 241 238 235 235 228 220 206 202 200 199 201 199 193 189